Bar Harbor, ME

11:56 PM EDT on July 21, 2017 (GMT -0400)
Hancock County-Bar Harbor

Weather History for KBHB - February, 2014

Change the Weather History Date:

Sunday, February 16, 2014

  Actual Average Record
Temperature  
Mean Temperature 21 °F -  
Max Temperature 30 °F 33 °F 51 °F (1949)
Min Temperature 12 °F 17 °F -11 °F (2003)
Degree Days  
Heating Degree Days 44    
Moisture  
Dew Point 16 °F    
Average Humidity 78    
Maximum Humidity 100    
Minimum Humidity 54    
Precipitation  
Precipitation 0.05 in - - ()
Sea Level Pressure  
Sea Level Pressure 29.52 in    
Wind  
Wind Speed 14 mph (NW)    
Max Wind Speed 21 mph    
Max Gust Speed 33 mph    
Visibility 7 miles    
Events      
Averages and records for this station are not official NWS values.
T = Trace of Precipitation, MM = Missing Value Source: NWS Daily Summary

Daily Weather History Graph

Daily Weather History Graph

Search for Another Location

Airport or City:

Trip Planner

Search our weather history database for the weather conditions in past years. The results will help you decide how hot, cold, wet, or windy it might be!

Date:

Astronomy

Feb. 16, 2014 Rise Set
Actual Time 6:31 AM EST 5:03 PM EST
Civil Twilight 6:02 AM EST 5:33 PM EST
Nautical Twilight 5:28 AM EST 6:07 PM EST
Astronomical Twilight 4:54 AM EST 6:41 PM EST
Moon 7:03 PM EST (2/16) 6:54 AM EST (2/16)
Length of Visible Light 11h 31m
Length of Day
10h 31m
Full, 97% of the Moon is Illuminated
Feb 16
Full
Feb 22
Last Quarter
Mar 1
New
Mar 8
First Quarter
Mar 16
Full

Hourly Weather History & Observations

Time (EST) Temp. Windchill Dew Point Humidity Pressure Visibility Wind Dir Wind Speed Gust Speed Precip Events Conditions
12:15 AM 24.8 °F - 24.8 °F 100% 29.36 in 0.5 mi North - - 0.01 in   Overcast
12:35 AM 24.8 °F 11.1 °F 24.8 °F 100% 29.32 in 0.8 mi North 18.4 mph 31.1 mph 0.02 in   Overcast
12:55 AM 24.8 °F 10.7 °F 24.8 °F 100% 29.30 in 0.5 mi North 19.6 mph 28.8 mph 0.02 in   Overcast
1:15 AM 24.8 °F 11.1 °F 24.8 °F 100% 29.28 in 0.5 mi North 18.4 mph 29.9 mph N/A   Overcast
1:35 AM 24.8 °F 10.7 °F 23.0 °F 93% 29.28 in 0.5 mi NNW 19.6 mph 33.4 mph 0.01 in   Overcast
1:55 AM 23.0 °F 9.6 °F 23.0 °F 100% 29.28 in 0.8 mi North 16.1 mph 26.5 mph 0.01 in   Overcast
2:15 AM 23.0 °F - 23.0 °F 100% 29.28 in 0.5 mi North - - 0.01 in   Overcast
2:35 AM 21.2 °F 5.6 °F 21.2 °F 100% 29.27 in 0.8 mi NNW 20.7 mph 27.6 mph 0.01 in   Overcast
2:55 AM 21.2 °F 6.8 °F 19.4 °F 93% 29.27 in 1.0 mi North 17.3 mph 27.6 mph 0.01 in   Overcast
3:15 AM 21.2 °F - 21.2 °F 100% 29.27 in 0.5 mi North - - N/A   Overcast
3:35 AM 21.2 °F 7.8 °F 21.2 °F 100% 29.26 in 1.0 mi NNW 15.0 mph 27.6 mph N/A   Overcast
3:55 AM 21.2 °F 7.3 °F 21.2 °F 100% 29.27 in 0.8 mi NNW 16.1 mph 27.6 mph N/A   Overcast
4:15 AM 21.2 °F 7.3 °F 21.2 °F 100% 29.28 in 1.0 mi North 16.1 mph 21.9 mph 0.01 in   Overcast
4:35 AM 21.2 °F 6.4 °F 19.4 °F 93% 29.28 in 1.5 mi NNW 18.4 mph 27.6 mph 0.01 in   Overcast
4:55 AM 21.2 °F 8.3 °F 19.4 °F 93% 29.29 in 1.5 mi NNW 13.8 mph 26.5 mph 0.01 in   Overcast
5:15 AM 21.2 °F 6.8 °F 19.4 °F 93% 29.29 in 2.0 mi NNW 17.3 mph 24.2 mph N/A   Overcast
5:35 AM 21.2 °F 8.3 °F 19.4 °F 93% 29.30 in 1.8 mi NNW 13.8 mph 26.5 mph N/A   Overcast
5:55 AM 21.2 °F 7.3 °F 19.4 °F 93% 29.30 in 2.5 mi NNW 16.1 mph 28.8 mph N/A   Overcast
6:15 AM 21.2 °F 7.3 °F 19.4 °F 93% 29.31 in 3.0 mi NNW 16.1 mph 27.6 mph N/A   Overcast
6:35 AM 21.2 °F 10.9 °F 19.4 °F 93% 29.33 in 2.0 mi NNW 9.2 mph 21.9 mph N/A   Overcast
6:55 AM 21.2 °F 10.9 °F 19.4 °F 93% 29.34 in 3.0 mi NW 9.2 mph 19.6 mph N/A   Overcast
7:15 AM 21.2 °F 10.1 °F 21.2 °F 100% 29.35 in 3.0 mi NW 10.4 mph 21.9 mph N/A   Overcast
7:35 AM 21.2 °F 10.1 °F 21.2 °F 100% 29.37 in 1.8 mi NW 10.4 mph 19.6 mph N/A   Overcast
7:55 AM 23.0 °F 10.1 °F 21.2 °F 93% 29.37 in 1.8 mi NW 15.0 mph 24.2 mph N/A   Overcast
8:15 AM 23.0 °F 13.1 °F 21.2 °F 93% 29.39 in 2.5 mi NW 9.2 mph 21.9 mph N/A   Overcast
8:35 AM 23.0 °F 10.6 °F 21.2 °F 93% 29.40 in 4.0 mi NW 13.8 mph 24.2 mph N/A   Overcast
8:55 AM 24.8 °F 12.9 °F 21.2 °F 86% 29.41 in 10.0 mi NW 13.8 mph 26.5 mph N/A   Overcast
9:15 AM 24.8 °F 11.9 °F 21.2 °F 86% 29.42 in 7.0 mi NW 16.1 mph 24.2 mph N/A   Overcast
9:35 AM 24.8 °F 14.0 °F 21.2 °F 86% 29.44 in 7.0 mi NW 11.5 mph 20.7 mph N/A   Overcast
9:55 AM 26.6 °F 16.2 °F 21.2 °F 80% 29.45 in 5.0 mi WNW 11.5 mph 20.7 mph N/A   Overcast
10:15 AM 26.6 °F 16.2 °F 21.2 °F 80% 29.46 in 8.0 mi NW 11.5 mph 20.7 mph N/A   Overcast
10:35 AM 26.6 °F 13.1 °F 19.4 °F 74% 29.46 in 5.0 mi NW 19.6 mph 27.6 mph N/A   Overcast
10:55 AM 28.4 °F 18.0 °F 21.2 °F 74% 29.47 in 9.0 mi NW 12.7 mph 25.3 mph N/A   Mostly Cloudy
11:15 AM 28.4 °F 17.5 °F 21.2 °F 74% 29.49 in 9.0 mi WNW 13.8 mph 23.0 mph N/A   Mostly Cloudy
11:35 AM 30.2 °F 19.3 °F 19.4 °F 64% 29.49 in 9.0 mi WNW 15.0 mph 23.0 mph N/A   Overcast
11:55 AM 30.2 °F 18.9 °F 19.4 °F 64% 29.50 in 10.0 mi WNW 16.1 mph 25.3 mph N/A   Mostly Cloudy
12:15 PM 30.2 °F 19.8 °F 17.6 °F 60% 29.50 in 10.0 mi West 13.8 mph 21.9 mph N/A   Mostly Cloudy
12:35 PM 30.2 °F 20.8 °F 17.6 °F 60% 29.52 in 10.0 mi West 11.5 mph 20.7 mph N/A   Scattered Clouds
12:55 PM 30.2 °F 21.9 °F 15.8 °F 55% 29.54 in 10.0 mi West 9.2 mph 24.2 mph N/A   Mostly Cloudy
1:15 PM 30.2 °F 19.8 °F 15.8 °F 55% 29.54 in 9.0 mi WNW 13.8 mph 23.0 mph N/A   Scattered Clouds
1:35 PM 30.2 °F 20.2 °F 15.8 °F 55% 29.55 in 10.0 mi WNW 12.7 mph 21.9 mph N/A   Partly Cloudy
1:55 PM 30.2 °F 20.2 °F 15.8 °F 55% 29.55 in 10.0 mi WNW 12.7 mph 20.7 mph N/A   Partly Cloudy
2:15 PM 30.2 °F 21.3 °F 15.8 °F 55% 29.56 in 10.0 mi WNW 10.4 mph 17.3 mph N/A   Scattered Clouds
2:35 PM 30.2 °F 21.3 °F 15.8 °F 55% 29.58 in 10.0 mi WNW 10.4 mph 19.6 mph N/A   Mostly Cloudy
2:55 PM 28.4 °F 19.7 °F 15.8 °F 59% 29.58 in 10.0 mi NW 9.2 mph 20.7 mph N/A   Mostly Cloudy
3:15 PM 28.4 °F 19.7 °F 15.8 °F 59% 29.59 in 10.0 mi WNW 9.2 mph 19.6 mph N/A   Mostly Cloudy
3:35 PM 28.4 °F 18.0 °F 15.8 °F 59% 29.59 in 10.0 mi WNW 12.7 mph 20.7 mph N/A   Scattered Clouds
3:55 PM 26.6 °F 16.2 °F 12.2 °F 55% 29.61 in 9.0 mi WNW 11.5 mph 24.2 mph N/A   Clear
4:15 PM 26.6 °F 14.3 °F 12.2 °F 55% 29.62 in 10.0 mi WNW 16.1 mph 21.9 mph N/A   Clear
4:35 PM 24.8 °F 13.4 °F 12.2 °F 59% 29.64 in 10.0 mi WNW 12.7 mph 21.9 mph N/A   Clear
4:55 PM 24.8 °F 16.1 °F 10.4 °F 54% 29.66 in 10.0 mi WNW 8.1 mph 16.1 mph N/A   Clear
5:15 PM 23.0 °F 12.4 °F 10.4 °F 59% 29.67 in 10.0 mi West 10.4 mph 18.4 mph N/A   Clear
5:35 PM 21.2 °F 8.3 °F 10.4 °F 63% 29.69 in 10.0 mi West 13.8 mph 23.0 mph N/A   Clear
5:55 PM 21.2 °F 11.7 °F 10.4 °F 63% 29.70 in 10.0 mi WNW 8.1 mph - N/A   Clear
6:15 PM 19.4 °F 7.2 °F 10.4 °F 68% 29.72 in 10.0 mi NW 11.5 mph 19.6 mph N/A   Clear
6:35 PM 19.4 °F 6.0 °F 10.4 °F 68% 29.72 in 10.0 mi WNW 13.8 mph 20.7 mph N/A   Clear
6:55 PM 19.4 °F 6.6 °F 8.6 °F 63% 29.74 in 10.0 mi WNW 12.7 mph 21.9 mph N/A   Clear
7:15 PM 17.6 °F 5.0 °F 8.6 °F 68% 29.75 in 10.0 mi NW 11.5 mph 17.3 mph N/A   Clear
7:35 PM 17.6 °F 12.3 °F 8.6 °F 68% 29.76 in 10.0 mi West 3.5 mph 16.1 mph N/A   Clear
7:55 PM 17.6 °F 6.4 °F 8.6 °F 68% 29.76 in 10.0 mi WNW 9.2 mph 18.4 mph N/A   Clear
8:15 PM 17.6 °F 5.7 °F 8.6 °F 68% 29.77 in 10.0 mi WNW 10.4 mph - N/A   Clear
8:35 PM 17.6 °F 7.3 °F 6.8 °F 63% 29.78 in 10.0 mi WNW 8.1 mph - N/A   Clear
8:55 PM 15.8 °F 5.1 °F 8.6 °F 73% 29.78 in 10.0 mi West 8.1 mph - N/A   Clear
9:15 PM 15.8 °F 5.1 °F 8.6 °F 73% 29.78 in 10.0 mi West 8.1 mph - N/A   Clear
9:35 PM 15.8 °F 5.1 °F 8.6 °F 73% 29.78 in 10.0 mi WNW 8.1 mph - N/A   Clear
9:55 PM 15.8 °F 8.6 °F 6.8 °F 68% 29.79 in 10.0 mi WNW 4.6 mph - N/A   Clear
10:15 PM 14.0 °F 6.5 °F 6.8 °F 73% 29.80 in 10.0 mi WSW 4.6 mph - N/A   Clear
10:35 PM 14.0 °F 8.2 °F 6.8 °F 73% 29.80 in 10.0 mi SW 3.5 mph - N/A   Clear
10:55 PM 12.2 °F 6.1 °F 6.8 °F 79% 29.81 in 10.0 mi WSW 3.5 mph - N/A   Clear
11:15 PM 12.2 °F 4.3 °F 6.8 °F 79% 29.82 in 10.0 mi West 4.6 mph - N/A   Clear
11:35 PM 12.2 °F 6.1 °F 6.8 °F 79% 29.83 in 10.0 mi WSW 3.5 mph - N/A   Clear
11:55 PM 12.2 °F 6.1 °F 6.8 °F 79% 29.83 in 10.0 mi West 3.5 mph - N/A   Clear